Weather reports worldwide

Advertisment
Holbeach, United Kingdom (3469): temperature & dewpoint: 19.02.2018 08:00:00 - 25.02.2018 08:00:00 (GMT)Holbeach, United Kingdom (3469): temperature -20cm & temperature -100cm: 19.02.2018 08:00:00 - 25.02.2018 08:00:00 (GMT)Holbeach, United Kingdom (3469): wind speed & gusts: 19.02.2018 08:00:00 - 25.02.2018 08:00:00 (GMT)Holbeach, United Kingdom (3469): wind direction: 19.02.2018 08:00:00 - 25.02.2018 08:00:00 (GMT)Holbeach, United Kingdom (3469): reduced air pressure: 19.02.2018 08:00:00 - 25.02.2018 08:00:00 (GMT)Holbeach, United Kingdom (3469): visibility: 19.02.2018 08:00:00 - 25.02.2018 08:00:00 (GMT)Holbeach, United Kingdom (3469): precipitation: 19.02.2018 08:00:00 - 25.02.2018 08:00:00 (GMT)
Date & Time tt [°C] td [°C] tt -20cm [°C] tt -100cm [°C] ff [km/h] ff [kn] fx [km/h] fx [kn] dd ppp [hPa] vv [km] rr [mm]
25.02.2018 08:00:00 - - - - - - - - - - - -
25.02.2018 07:00:00 -0,8 -3,7 - - 22 12 - - E 1030,2 45 0,0
25.02.2018 06:00:00 -1,0 -3,8 - - 21 11 - - E 1029,7 35 0,0
25.02.2018 05:00:00 -0,2 -3,4 - - 24 13 - - E 1029,5 30 0,0
25.02.2018 04:00:00 -0,5 -3,4 - - 21 11 - - E 1029,1 35 0,0
25.02.2018 03:00:00 -0,2 -3,3 - - 22 12 - - E 1028,8 30 0,0
25.02.2018 02:00:00 0,0 -3,2 - - 21 11 - - E 1028,6 30 0,0
25.02.2018 01:00:00 0,3 -2,5 - - 22 12 - - E 1028,5 23 0,0
25.02.2018 00:00:00 0,6 -2,3 - - 22 12 - - E 1028,3 24 0,0
24.02.2018 23:00:00 1,3 -1,7 - - 29 16 - - E 1028,0 25 0,0
24.02.2018 22:00:00 1,1 -1,1 - - 24 13 - - E 1027,6 18 0,0
24.02.2018 21:00:00 1,4 -0,6 - - 28 15 - - E 1027,3 15 0,0
24.02.2018 20:00:00 1,6 -0,4 - - 29 16 - - E 1026,8 14 0,0
24.02.2018 19:00:00 1,8 -0,1 - - 29 16 - - E 1026,5 12 0,0
24.02.2018 18:00:00 2,4 -0,4 - - 29 16 - - E 1026,1 15 0,0
24.02.2018 17:00:00 3,4 -0,9 - - 28 15 - - E 1025,5 21 0,0
24.02.2018 16:00:00 4,9 -0,9 - - 24 13 - - E 1025,4 24 0,0
24.02.2018 15:00:00 6,6 -1,7 - - 26 14 - - E 1025,2 30 0,0
24.02.2018 14:00:00 6,8 -3,6 - - 28 15 - - ESE 1025,0 30 0,0
24.02.2018 13:00:00 6,6 -3,7 - - 24 13 - - E 1025,1 40 0,0
24.02.2018 12:00:00 5,6 -3,3 - - 26 14 - - E 1025,3 20 0,0
24.02.2018 11:00:00 4,2 -2,1 - - 26 14 - - E 1025,3 22 0,0
24.02.2018 10:00:00 3,0 -2,1 - - 24 13 - - E 1025,1 23 0,0
24.02.2018 09:00:00 1,5 -2,3 4,2 6,5 22 12 - - E 1024,7 15 0,0
24.02.2018 08:00:00 0,1 -2,4 - - 18 10 - - E 1024,3 12 0,0
24.02.2018 07:00:00 -1,0 -2,8 - - 21 11 - - E 1023,5 12 0,0
24.02.2018 06:00:00 -1,1 -3,0 - - 18 10 - - E 1023,1 11 0,0
24.02.2018 05:00:00 -1,2 -2,8 - - 18 10 - - E 1022,7 11 0,0
24.02.2018 04:00:00 -1,2 -2,9 - - 16 9 - - E 1022,8 12 0,0
24.02.2018 03:00:00 -0,5 -2,5 - - 16 9 - - E 1022,7 14 0,0
24.02.2018 02:00:00 0,2 -2,3 - - 18 10 - - E 1022,7 15 0,0
24.02.2018 01:00:00 1,0 -1,7 - - 22 12 - - E 1022,6 13 0,0
24.02.2018 00:00:00 0,5 -2,0 - - 22 12 - - ESE 1022,4 13 0,0
23.02.2018 23:00:00 1,0 -1,6 - - 22 12 - - E 1022,4 15 0,0
23.02.2018 22:00:00 0,7 -1,7 - - 18 10 - - E 1022,2 13 0,0
23.02.2018 21:00:00 0,9 -2,0 - - 18 10 - - E 1022,4 16 0,0
23.02.2018 20:00:00 0,5 -2,3 - - 16 9 - - E 1022,4 21 0,0
23.02.2018 19:00:00 0,1 -2,8 - - 18 10 - - E 1022,4 18 0,0
23.02.2018 18:00:00 0,8 -3,2 - - 24 13 - - E 1022,3 20 0,0
23.02.2018 17:00:00 2,1 -2,7 - - 22 12 - - E 1022,4 35 0,0
23.02.2018 16:00:00 2,9 -2,0 - - 24 13 - - ESE 1022,4 27 0,0
23.02.2018 15:00:00 3,6 -2,1 - - 28 15 - - E 1022,8 45 0,0
23.02.2018 14:00:00 4,3 -2,1 - - 22 12 - - ESE 1023,0 25 0,0
23.02.2018 13:00:00 4,4 -1,2 - - 24 13 - - E 1023,5 30 0,0
23.02.2018 12:00:00 3,9 -1,0 - - 24 13 - - E 1024,2 21 0,0
23.02.2018 11:00:00 3,0 -1,4 - - 24 13 - - ESE 1024,6 21 0,0
23.02.2018 10:00:00 2,7 -0,4 - - 18 10 - - ESE 1024,8 21 0,2
23.02.2018 09:00:00 2,2 0,0 4,7 6,5 22 12 - - ESE 1024,7 10 0,0
23.02.2018 08:00:00 0,6 0,0 - - 15 8 - - E 1024,6 9 0,0
23.02.2018 07:00:00 -1,8 -2,6 - - 15 8 - - E 1024,3 8 0,0
23.02.2018 06:00:00 -0,3 -1,1 - - 15 8 - - ESE 1024,1 9 0,0
23.02.2018 05:00:00 -1,2 -1,7 - - 15 8 - - E 1024,0 7 0,0
23.02.2018 04:00:00 -1,0 -1,9 - - 11 6 - - E 1024,1 8 0,0
23.02.2018 03:00:00 -1,4 -2,5 - - 15 8 - - E 1024,2 7 0,0
23.02.2018 02:00:00 0,0 -1,1 - - 15 8 - - ESE 1024,6 8 0,0
23.02.2018 01:00:00 0,7 -0,6 - - 18 10 - - ESE 1024,7 9 0,0
23.02.2018 00:00:00 0,7 -0,6 - - 16 9 - - E 1024,9 11 0,0
22.02.2018 23:00:00 0,3 -1,3 - - 16 9 - - E 1025,2 11 0,0
22.02.2018 22:00:00 0,0 -1,8 - - 16 9 - - E 1025,4 11 0,0
22.02.2018 21:00:00 -0,2 -2,0 - - 16 9 - - E 1025,4 13 0,0
22.02.2018 20:00:00 -0,1 -2,0 - - 18 10 - - E 1025,3 10 0,0
22.02.2018 19:00:00 -0,4 -2,6 - - 16 9 - - ESE 1025,3 16 0,0
22.02.2018 18:00:00 0,5 -2,2 - - 18 10 - - SE 1024,9 10 0,0
22.02.2018 17:00:00 2,9 -2,2 - - 21 11 - - SE 1024,8 10 0,0
22.02.2018 16:00:00 5,0 -1,3 - - 13 7 - - SE 1024,9 26 0,0
22.02.2018 15:00:00 5,7 -1,1 - - 15 8 - - E 1025,2 24 0,0
22.02.2018 14:00:00 5,7 -1,0 - - 18 10 - - E 1025,5 22 0,0
22.02.2018 13:00:00 5,3 -1,3 - - 16 9 - - E 1026,1 14 0,0
22.02.2018 12:00:00 4,4 -0,9 - - 21 11 - - ESE 1026,6 21 0,0
22.02.2018 11:00:00 3,0 -1,5 - - 22 12 - - ESE 1026,9 10 0,0
22.02.2018 10:00:00 2,6 -1,4 - - 24 13 - - E 1026,8 12 0,0
22.02.2018 09:00:00 2,1 -1,2 5,2 6,5 18 10 - - E 1026,7 12 0,0
22.02.2018 08:00:00 1,4 -1,3 - - 18 10 - - E 1026,5 10 0,0
22.02.2018 07:00:00 1,0 -0,7 - - 16 9 - - E 1026,4 13 0,0
22.02.2018 06:00:00 -1,1 -1,9 - - 15 8 - - E 1026,3 8 0,0
22.02.2018 05:00:00 -0,6 -1,4 - - 15 8 - - E 1026,1 8 0,0
22.02.2018 04:00:00 0,3 -0,6 - - 16 9 - - E 1026,1 6 0,0
22.02.2018 03:00:00 0,7 0,3 - - 16 9 - - E 1026,2 4,9 0,0
22.02.2018 02:00:00 0,7 0,2 - - 15 8 - - E 1026,6 2,7 0,0
22.02.2018 01:00:00 1,8 1,2 - - 16 9 - - E 1026,6 4,7 0,0
22.02.2018 00:00:00 2,0 1,3 - - 15 8 - - E 1026,7 6 0,0
21.02.2018 23:00:00 3,4 3,1 - - 16 9 - - NE 1026,8 40 0,0
21.02.2018 22:00:00 2,0 1,8 - - 9 5 - - NNE 1027,2 22 0,0
21.02.2018 21:00:00 1,0 0,6 - - 11 6 - - NNE 1027,2 15 0,0
21.02.2018 20:00:00 1,7 1,3 - - 13 7 - - NNE 1027,2 30 0,0
21.02.2018 19:00:00 1,5 0,8 - - 13 7 - - NNE 1027,1 45 0,0
21.02.2018 18:00:00 2,2 0,8 - - 13 7 - - NE 1026,9 40 0,0
21.02.2018 17:00:00 4,3 1,9 - - 16 9 - - NE 1026,7 50 0,0
21.02.2018 16:00:00 6,1 2,7 - - 13 7 - - NE 1026,6 50 0,0
21.02.2018 15:00:00 6,1 3,2 - - 15 8 - - NE 1026,9 45 0,0
21.02.2018 14:00:00 6,0 3,5 - - 16 9 - - NE 1027,3 10 0,0
21.02.2018 13:00:00 6,5 4,5 - - 13 7 - - NE 1027,9 45 0,0
21.02.2018 12:00:00 6,5 5,2 - - 13 7 - - NE 1028,2 12 0,0
21.02.2018 11:00:00 6,3 5,8 - - 16 9 - - NNE 1028,2 5 0,0
21.02.2018 10:00:00 5,1 4,8 - - 4 2 - - N 1028,3 2,0 0,2
21.02.2018 09:00:00 4,0 3,8 5,7 6,4 4 2 - - WSW 1028,2 2,3 0,0
21.02.2018 08:00:00 3,5 3,3 - - 8 4 - - WNW 1027,9 1,6 0,0
21.02.2018 07:00:00 3,2 3,0 - - 8 4 - - NW 1027,8 1,9 0,0
21.02.2018 06:00:00 2,8 2,6 - - 11 6 - - NNW 1027,8 2,3 0,0
21.02.2018 05:00:00 2,5 2,1 - - 9 5 - - N 1027,9 2,3 0,0
21.02.2018 04:00:00 2,9 2,5 - - 8 4 - - NNW 1028,0 2,5 0,0
21.02.2018 03:00:00 2,9 2,4 - - 5 3 - - NNE 1028,2 3,9 0,0
21.02.2018 02:00:00 3,1 2,3 - - 8 4 - - NE 1028,1 5 0,0
21.02.2018 01:00:00 3,2 2,5 - - 13 7 - - ENE 1027,8 5 0,0
21.02.2018 00:00:00 3,3 2,2 - - 9 5 - - E 1027,3 6 0,0
20.02.2018 23:00:00 3,7 2,5 - - 16 9 - - E 1026,4 6 0,0
20.02.2018 22:00:00 3,9 2,8 - - 15 8 - - E 1025,9 4,1 0,0
20.02.2018 21:00:00 4,3 3,4 - - 15 8 - - ENE 1025,5 4,8 0,0
20.02.2018 20:00:00 4,6 4,0 - - 13 7 - - NE 1024,8 4,5 0,0
20.02.2018 19:00:00 4,8 4,0 - - 18 10 - - NNE 1024,3 3,9 0,0
20.02.2018 18:00:00 5,8 4,7 - - 35 19 59 32 NNE 1023,2 16 0,0
20.02.2018 17:00:00 6,2 5,0 - - 46 25 70 38 N 1022,1 30 0,0
20.02.2018 16:00:00 6,3 4,9 - - 50 27 76 41 N 1021,2 10 0,0
20.02.2018 15:00:00 6,9 4,2 - - 55 30 70 38 N 1020,6 45 0,0
20.02.2018 14:00:00 7,0 4,5 - - 39 21 55 30 N 1020,4 10 0,2
20.02.2018 13:00:00 7,9 4,7 - - 29 16 - - NNW 1020,5 25 0,0
20.02.2018 12:00:00 7,5 4,5 - - 34 18 63 34 N 1020,7 10 0,0
20.02.2018 11:00:00 7,1 4,3 - - 37 20 57 31 N 1020,7 40 0,2
20.02.2018 10:00:00 6,5 6,3 - - 18 10 - - N 1020,3 10 0,2
20.02.2018 09:00:00 6,3 6,1 5,7 6,2 22 12 46 25 N 1019,6 9 0,6
20.02.2018 08:00:00 6,4 6,4 - - 9 5 - - WNW 1018,6 1,7 1,0
20.02.2018 07:00:00 5,7 5,7 - - 2 1 - - W 1018,3 0,7 0,2
20.02.2018 06:00:00 5,6 5,6 - - 0 0 - - N 1018,0 0,8 0,2
20.02.2018 05:00:00 5,5 5,5 - - 2 1 - - N 1018,1 0,3 0,0
20.02.2018 04:00:00 5,5 5,5 - - 4 2 - - NW 1018,0 1,2 0,0
20.02.2018 03:00:00 5,3 5,2 - - 4 2 - - N 1017,9 0,7 0,2
20.02.2018 02:00:00 5,2 5,2 - - 5 3 - - NNE 1017,6 1,0 0,2
20.02.2018 01:00:00 5,4 5,3 - - 9 5 - - NE 1017,7 1,3 0,2
20.02.2018 00:00:00 5,4 5,3 - - 11 6 - - NE 1017,7 1,4 0,6
19.02.2018 23:00:00 5,9 5,8 - - 9 5 - - N 1017,1 1,5 0,4
19.02.2018 22:00:00 5,7 5,6 - - 8 4 - - NNE 1017,0 1,4 0,0
19.02.2018 21:00:00 5,4 5,3 - - 8 4 - - NE 1016,7 0,2 0,0
19.02.2018 20:00:00 5,6 5,4 - - 9 5 - - ENE 1016,8 1,1 0,2
19.02.2018 19:00:00 6,4 6,2 - - 9 5 - - NE 1016,5 1,1 0,0
19.02.2018 18:00:00 6,7 6,5 - - 11 6 - - NNE 1016,2 1,6 0,4
19.02.2018 17:00:00 6,9 6,7 - - 15 8 - - NE 1015,8 0,7 0,4
19.02.2018 16:00:00 9,0 8,2 - - 11 6 - - NE 1015,3 3,6 0,0
19.02.2018 15:00:00 9,9 9,5 - - 16 9 - - NNW 1015,2 11 0,0
19.02.2018 14:00:00 9,8 9,6 - - 18 10 - - N 1015,2 3,0 0,2
19.02.2018 13:00:00 9,6 9,4 - - 16 9 - - NW 1015,1 3,2 0,0
19.02.2018 12:00:00 9,1 9,0 - - 15 8 - - WNW 1015,2 3,5 0,4
19.02.2018 11:00:00 7,9 7,9 - - 9 5 - - W 1015,5 1,5 0,2
19.02.2018 10:00:00 6,9 6,9 - - 11 6 - - WSW 1015,6 1,5 0,4
19.02.2018 09:00:00 6,1 5,9 5,0 6,2 13 7 - - SSW 1015,7 1,2 0,6
19.02.2018 08:00:00 5,7 5,5 - - 15 8 - - SSW 1016,0 1,4 0,2

tt = temperature
td = dewpoint
tt -20cm = temperature -20cm
tt -100cm = temperature -100cm
ff = wind speed
fx = gusts
dd = wind direction
ppp = reduced air pressure
vv = visibility
rr = precipitation

Next stations